User: anonymous   Login
Location: New Mesquite
(33.1168°N, 96.4336°W)
Time: 04:58:27
(UTC+00:00)
Language:

Cosmos 1538 Rocket - Orbit

View from above orbital plane
View from above orbital plane
View from above satellite
View from above satellite

Ground track
Ground track

The orbit data is extracted from the following two-line orbital elements,

1 14760U 84019B   23340.53617986  .00000355  00000-0  12958-3 0  9998
2 14760  74.0431 105.6206 0026663 105.1175 255.2931 14.36332960 82804
Epoch (UTC): 06 December 2023 12:52:05
Eccentricity: 0.0026663
inclination: 74.0431°
perigee height: 751 km
apogee height: 790 km
right ascension of ascending node: 105.6206°
argument of perigee: 105.1175°
revolutions per day: 14.36332960
mean anomaly at epoch: 255.2931°
orbit number at epoch: 8280

The dashed part of the orbit path shows where the satellite is in the earth's shadow,  

DLR